Photometre #849[NE_1.6_Dp] Portglenone_MO AOT

File : 20220825_849.hum

25/08/2022,06:22:55,TEMP=11.4,BA=5.68,STAT.A,ExtBa=12.20
25/08/2022,06:27:23,TEMP=11.6,BA=5.68,STAT.A,ExtBa=12.20
25/08/2022,06:32:35,TEMP=11.9,BA=5.68,STAT.A,ExtBa=12.20
25/08/2022,06:38:44,TEMP=12.1,BA=5.68,STAT.A,ExtBa=12.20
25/08/2022,06:46:07,TEMP=12.2,BA=5.60,STAT.A,ExtBa=12.20
25/08/2022,06:55:10,TEMP=12.5,BA=5.68,STAT.A,ExtBa=12.20
25/08/2022,07:06:33,TEMP=12.9,BA=5.68,STAT.B,ExtBa=12.20
25/08/2022,07:19:51,TEMP=13.7,BA=5.60,STAT.A,ExtBa=12.10
25/08/2022,07:21:52,TEMP=13.8,BA=5.60,STAT.A,ExtBa=12.10
25/08/2022,07:24:50,TEMP=13.7,BA=5.60,STAT.A,ExtBa=12.10
25/08/2022,07:32:35,TEMP=13.8,BA=5.64,STAT.A,ExtBa=12.10
25/08/2022,07:41:25,TEMP=14.2,BA=5.64,STAT.C,ExtBa=12.10
25/08/2022,08:16:54,TEMP=16.9,BA=5.56,STAT.b=1.0
25/08/2022,08:17:20,TEMP=17.1,BA=5.56,STAT.A,ExtBa=12.10
25/08/2022,08:19:28,TEMP=17.1,BA=5.56,STAT.A,ExtBa=12.10
25/08/2022,08:21:29,TEMP=17.2,BA=5.56,STAT.A,ExtBa=12.10
25/08/2022,08:35:47,TEMP=16.3,BA=5.64,STAT.A,ExtBa=12.10
25/08/2022,08:58:11,TEMP=17.1,BA=5.64,STAT.B,ExtBa=12.10
25/08/2022,09:11:45,TEMP=18.6,BA=5.52,STAT.D,ExtBa=12.00
25/08/2022,09:13:45,TEMP=18.6,BA=5.52,STAT.D,ExtBa=12.10
25/08/2022,09:28:41,TEMP=18.3,BA=5.64,STAT.F,ExtBa=12.10
25/08/2022,09:44:03,TEMP=19.5,BA=5.52,STAT.D,ExtBa=12.10
25/08/2022,09:58:40,TEMP=18.8,BA=5.64,STAT.D,ExtBa=12.10
25/08/2022,10:13:40,TEMP=20.3,BA=5.64,STAT.D,ExtBa=12.10
25/08/2022,10:28:42,TEMP=19.5,BA=5.64,STAT.F,ExtBa=12.10
25/08/2022,10:43:40,TEMP=18.9,BA=5.60,STAT.D,ExtBa=12.10
25/08/2022,10:58:40,TEMP=18.7,BA=5.64,STAT.D,ExtBa=12.10
25/08/2022,11:13:40,TEMP=18.8,BA=5.60,STAT.D,ExtBa=12.10
25/08/2022,11:28:42,TEMP=18.7,BA=5.48,STAT.F,ExtBa=12.10
25/08/2022,11:43:40,TEMP=18.6,BA=5.48,STAT.D,ExtBa=12.10
25/08/2022,11:58:40,TEMP=19.5,BA=5.48,STAT.D,ExtBa=12.10
25/08/2022,12:13:40,TEMP=19.6,BA=5.48,STAT.D,ExtBa=12.10
25/08/2022,12:28:42,TEMP=19.9,BA=5.48,STAT.F,ExtBa=12.10
25/08/2022,12:54:12,TEMP=21.4,BA=5.40,STAT.D,ExtBa=12.00
25/08/2022,12:58:40,TEMP=21.2,BA=5.40,STAT.D,ExtBa=12.00
25/08/2022,13:13:41,TEMP=20.2,BA=5.44,STAT.D,ExtBa=12.10
25/08/2022,13:28:42,TEMP=20.2,BA=5.44,STAT.F,ExtBa=12.10
25/08/2022,13:43:40,TEMP=20.1,BA=5.44,STAT.D,ExtBa=12.10
25/08/2022,13:58:40,TEMP=20.3,BA=5.44,STAT.D,ExtBa=12.10
25/08/2022,14:13:40,TEMP=20.1,BA=5.44,STAT.D,ExtBa=12.10
25/08/2022,14:28:42,TEMP=19.4,BA=5.44,STAT.F,ExtBa=12.00
25/08/2022,14:43:40,TEMP=19.1,BA=5.40,STAT.D,ExtBa=12.00
25/08/2022,14:58:40,TEMP=19.7,BA=5.40,STAT.D,ExtBa=12.10
25/08/2022,15:13:40,TEMP=19.5,BA=5.40,STAT.D,ExtBa=12.00
25/08/2022,15:28:41,TEMP=19.0,BA=5.40,STAT.F,ExtBa=12.00
25/08/2022,15:43:40,TEMP=18.6,BA=5.40,STAT.D,ExtBa=12.00
25/08/2022,15:58:39,TEMP=18.6,BA=5.40,STAT.D,ExtBa=12.00
25/08/2022,16:00:40,TEMP=19.0,BA=5.36,STAT.B,ExtBa=12.00
25/08/2022,16:21:35,TEMP=18.2,BA=5.40,STAT.A,ExtBa=12.00
25/08/2022,16:39:15,TEMP=17.9,BA=5.40,STAT.A,ExtBa=12.10
25/08/2022,16:53:40,TEMP=17.8,BA=5.64,STAT.A,ExtBa=12.10
25/08/2022,17:05:43,TEMP=17.6,BA=5.64,STAT.A,ExtBa=12.10
25/08/2022,17:15:57,TEMP=17.3,BA=5.64,STAT.C,ExtBa=12.10
25/08/2022,17:24:47,TEMP=16.7,BA=5.64,STAT.A,ExtBa=12.10
25/08/2022,17:32:31,TEMP=15.9,BA=5.64,STAT.A,ExtBa=12.10
25/08/2022,17:39:19,TEMP=15.4,BA=5.64,STAT.A,ExtBa=12.10
25/08/2022,17:45:21,TEMP=15.2,BA=5.52,STAT.A,ExtBa=12.10
25/08/2022,17:50:47,TEMP=15.0,BA=5.64,STAT.B,ExtBa=12.10
25/08/2022,18:02:10,TEMP=14.6,BA=5.64,STAT.A,ExtBa=12.10
25/08/2022,18:11:13,TEMP=14.6,BA=5.64,STAT.A,ExtBa=12.10
25/08/2022,18:18:36,TEMP=14.7,BA=5.64,STAT.A,ExtBa=12.10
25/08/2022,18:24:45,TEMP=14.7,BA=5.52,STAT.A,ExtBa=12.10
25/08/2022,18:29:57,TEMP=14.8,BA=5.52,STAT.A,ExtBa=12.10
25/08/2022,18:34:25,TEMP=14.8,BA=5.56,STAT.A,ExtBa=12.10